STARLINK-1047, 44752

Orbit data source: Space-Track

STARLINK-1047, 44752 is a payload satellite owned by SpaceX/Seattle (US) in LEO that was launched on Mon, 11 Nov 2019 UTC via an FALCON 9 launch vehicle from the Air Force Eastern Test Range (AFETR). Payload-class satellites include a variety of spacecraft equipped with specific instruments for various scientific and technological missions. These include communications satellites like Starlink; space stations such as the ISS; scientific satellites like the Hubble; Earth observation satellites from companies like Planet Labs, Umbra, and HawkEye 360; GPS; miniature CubeSats for education and research; and military/defense satellites.

Loading next visibility...
Identifier
44752, 2019-074AR
Orbit
LEO
Country
Flag of USUS
Related business
Manufacturer
SpaceX/Seattle
Mission
Partially operational Commercial Communications
Bus & Motor
STARLINK, Unknown motor
Mass
260 kg wet, ~248 kg dry
Launch date (UTC)
2019-11-11 (7 years ago)
Launch vehicle
FALCON 9
Launch site
Air Force Eastern Test Range (AFETR)
Object type
Payload
Rocket body
Debris
Shape & HBR
Box + 1 Pan, 10.1 m
Radar Cross Section
13.562 m², Large (>1 m²)

Expand to show TLE details & history
Last TLE update: 13 hours ago

TLE from 13 hours ago
0 STARLINK-1047
1 44752U 19074AR  26167.94047493  .00007608  00000-0  23383-3 0  9998
2 44752  53.0694  41.5814 0003507 131.0405 229.0900 15.34703424364573
Epoch: 2026-06-16T22:34Z
TLE epoch observation values (Epoch: 2026-06-16T22:34:17.033Z)
Latitude
-0.00005°
Longitude
157.80509°
Altitude
464.265 km
Speed
7.635 km/s
True Right ascension
02h 46m 19s
True Declination
0° 00' 00"
Sunlit
Object was in daylight at epoch
Visualization orbit readout
Latitude
Unknown
Longitude
Unknown
Altitude
Unknown
Speed
Unknown
Apparent Right ascension
Unknown
Apparent Declination
Unknown
Sunlit
N/A
Visualization observer readout
Local Sidereal Time
22:44:32
Azimuth
Unknown
Elevation
Unknown
Doppler factor
Unknown
Orbital elements
Apogee altitude
464.472 km
Perigee altitude
459.674 km
Semi-major axis
6,840.21 km
Eccentricity
0.00035
Inclination
53.0694°
RAAN
41.5814°
Arg. of periapsis
131.0405°
True anomaly
229.05964°
Mean anomaly
229.09°
Eccentric anomaly
229.07482°
Mean motion
3.83653 °/min
Orbital period
93.83 mins
BSTAR
0.00023383
Loading maneuver chart data...
Computing Atmospheric mass density...

Documentation

Showing up to 5 results
|